Previsão horária em Barra de Santo Antônio

Hoje, 22 Outubro, Quinta-feira

Tempo Temperatura Precipitação Vento Pressão Humidade
00:00 +26°C° 0.1 mm 3 m/s 759 mmHg 91%
01:00 +26°C° 0.1 mm 3 m/s 759 mmHg 91%
02:00 +26°C° 0 mm 3 m/s 758 mmHg 91%
03:00 +25°C° 0 mm 3 m/s 758 mmHg 92%
04:00 +25°C° 0 mm 3 m/s 758 mmHg 92%
05:00 +26°C° 0.1 mm 3 m/s 758 mmHg 91%
06:00 +26°C° 0.1 mm 3 m/s 758 mmHg 89%
07:00 +26°C° 0.1 mm 3 m/s 759 mmHg 87%
08:00 +27°C° 0.2 mm 4 m/s 759 mmHg 83%
09:00 +29°C° 0.2 mm 4 m/s 759 mmHg 78%
10:00 +30°C° 0.2 mm 4 m/s 759 mmHg 73%
11:00 +30°C° 0.1 mm 5 m/s 759 mmHg 68%
12:00 +32°C° 0.1 mm 5 m/s 758 mmHg 64%
13:00 +33°C° 0.1 mm 5 m/s 758 mmHg 59%
14:00 +33°C° 0 mm 5 m/s 758 mmHg 61%
15:00 +32°C° 0 mm 4 m/s 757 mmHg 62%
16:00 +32°C° 0 mm 4 m/s 757 mmHg 64%
17:00 +29°C° 0 mm 4 m/s 757 mmHg 71%
18:00 +28°C° 0 mm 4 m/s 758 mmHg 78%
19:00 +27°C° 0 mm 3 m/s 758 mmHg 85%
20:00 +27°C° 0 mm 4 m/s 758 mmHg 87%
21:00 +26°C° 0 mm 4 m/s 759 mmHg 89%
22:00 +26°C° 0 mm 4 m/s 759 mmHg 90%
23:00 +26°C° 0.1 mm 4 m/s 759 mmHg 91%

Amanhã, 23 Outubro, Sexta-feira

Tempo Temperatura Precipitação Vento Pressão Humidade
00:00 +26°C° 0.1 mm 4 m/s 758 mmHg 91%
01:00 +26°C° 0.1 mm 4 m/s 758 mmHg 91%
02:00 +26°C° 0.1 mm 4 m/s 758 mmHg 91%
03:00 +26°C° 0.1 mm 4 m/s 758 mmHg 92%
04:00 +25°C° 0.1 mm 4 m/s 757 mmHg 92%
05:00 +26°C° 0.1 mm 4 m/s 757 mmHg 91%
06:00 +26°C° 0.1 mm 4 m/s 758 mmHg 89%
07:00 +27°C° 0.1 mm 4 m/s 758 mmHg 88%
08:00 +28°C° 0.1 mm 4 m/s 758 mmHg 80%
09:00 +29°C° 0.1 mm 4 m/s 759 mmHg 73%
10:00 +32°C° 0.1 mm 5 m/s 759 mmHg 65%
11:00 +32°C° 0 mm 5 m/s 759 mmHg 62%
12:00 +33°C° 0 mm 5 m/s 758 mmHg 59%
13:00 +33°C° 0 mm 5 m/s 758 mmHg 56%
14:00 +33°C° 0 mm 5 m/s 757 mmHg 59%
15:00 +32°C° 0 mm 5 m/s 757 mmHg 62%
16:00 +32°C° 0 mm 5 m/s 757 mmHg 64%
17:00 +29°C° 0.1 mm 4 m/s 757 mmHg 72%
18:00 +28°C° 0.1 mm 4 m/s 757 mmHg 80%
19:00 +26°C° 0.1 mm 3 m/s 758 mmHg 88%
20:00 +26°C° 0.2 mm 4 m/s 758 mmHg 89%
21:00 +26°C° 0.2 mm 4 m/s 758 mmHg 91%
22:00 +26°C° 0.2 mm 4 m/s 759 mmHg 92%
23:00 +26°C° 0.1 mm 4 m/s 758 mmHg 92%

Depois de amanhã, 24 Outubro, Sábado

Tempo Temperatura Precipitação Vento Pressão Humidade
00:00 +25°C° 0.1 mm 4 m/s 758 mmHg 92%
01:00 +25°C° 0.1 mm 4 m/s 757 mmHg 93%
02:00 +25°C° 0.1 mm 4 m/s 757 mmHg 93%
03:00 +25°C° 0.1 mm 3 m/s 757 mmHg 92%
04:00 +25°C° 0.1 mm 3 m/s 757 mmHg 92%
05:00 +25°C° 0.1 mm 3 m/s 757 mmHg 90%
06:00 +26°C° 0.1 mm 3 m/s 757 mmHg 88%
07:00 +26°C° 0.1 mm 3 m/s 758 mmHg 87%
08:00 +28°C° 0.2 mm 3 m/s 758 mmHg 80%
09:00 +29°C° 0.2 mm 4 m/s 758 mmHg 74%
10:00 +30°C° 0.2 mm 4 m/s 759 mmHg 68%
11:00 +32°C° 0.1 mm 4 m/s 758 mmHg 65%
12:00 +32°C° 0.1 mm 5 m/s 758 mmHg 61%
13:00 +33°C° 0.1 mm 5 m/s 757 mmHg 58%
14:00 +33°C° 0 mm 5 m/s 757 mmHg 61%
15:00 +32°C° 0 mm 5 m/s 757 mmHg 64%
16:00 +30°C° 0 mm 5 m/s 756 mmHg 67%
17:00 +29°C° 0.1 mm 5 m/s 757 mmHg 74%
18:00 +28°C° 0.1 mm 5 m/s 757 mmHg 81%
19:00 +27°C° 0.1 mm 4 m/s 757 mmHg 87%
20:00 +26°C° 0.1 mm 4 m/s 757 mmHg 89%
21:00 +26°C° 0.1 mm 4 m/s 757 mmHg 90%
22:00 +26°C° 0.1 mm 4 m/s 758 mmHg 92%
23:00 +26°C° 0.1 mm 4 m/s 757 mmHg 92%

, 25 Outubro, Domingo

Tempo Temperatura Precipitação Vento Pressão Humidade
00:00 +26°C° 0.1 mm 5 m/s 757 mmHg 92%
01:00 +26°C° 0.1 mm 5 m/s 756 mmHg 92%
02:00 +26°C° 0.1 mm 5 m/s 756 mmHg 92%
03:00 +25°C° 0.1 mm 5 m/s 756 mmHg 92%
04:00 +25°C° 0.1 mm 5 m/s 755 mmHg 93%
05:00 +26°C° 0.2 mm 5 m/s 756 mmHg 91%
06:00 +26°C° 0.2 mm 5 m/s 756 mmHg 90%
07:00 +27°C° 0.2 mm 5 m/s 757 mmHg 88%
08:00 +28°C° 0.2 mm 5 m/s 757 mmHg 82%
09:00 +29°C° 0.2 mm 6 m/s 757 mmHg 76%
10:00 +30°C° 0.2 mm 6 m/s 757 mmHg 70%
11:00 +32°C° 0 mm 6 m/s 757 mmHg 66%
12:00 +33°C° 0 mm 6 m/s 756 mmHg 61%
13:00 +34°C° 0 mm 6 m/s 756 mmHg 57%
14:00 +33°C° 0 mm 5 m/s 756 mmHg 57%
15:00 +33°C° 0 mm 5 m/s 755 mmHg 57%
16:00 +32°C° 0 mm 5 m/s 755 mmHg 58%
17:00 +30°C° 0 mm 5 m/s 755 mmHg 65%
18:00 +28°C° 0 mm 4 m/s 756 mmHg 72%
19:00 +27°C° 0 mm 4 m/s 756 mmHg 80%
20:00 +27°C° 0.1 mm 4 m/s 756 mmHg 83%
21:00 +26°C° 0.1 mm 4 m/s 757 mmHg 86%
22:00 +26°C° 0.1 mm 4 m/s 757 mmHg 89%
23:00 +26°C° 0.1 mm 4 m/s 757 mmHg 90%

25 Outubro, Domingo

Tempo Temperatura Precipitação Vento Pressão Humidade
00:00 +26°C° 0.1 mm 5 m/s 757 mmHg 92%
01:00 +26°C° 0.1 mm 5 m/s 756 mmHg 92%
02:00 +26°C° 0.1 mm 5 m/s 756 mmHg 92%
03:00 +25°C° 0.1 mm 5 m/s 756 mmHg 92%
04:00 +25°C° 0.1 mm 5 m/s 755 mmHg 93%
05:00 +26°C° 0.2 mm 5 m/s 756 mmHg 91%
06:00 +26°C° 0.2 mm 5 m/s 756 mmHg 90%
07:00 +27°C° 0.2 mm 5 m/s 757 mmHg 88%
08:00 +28°C° 0.2 mm 5 m/s 757 mmHg 82%
09:00 +29°C° 0.2 mm 6 m/s 757 mmHg 76%
10:00 +30°C° 0.2 mm 6 m/s 757 mmHg 70%
11:00 +32°C° 0 mm 6 m/s 757 mmHg 66%
12:00 +33°C° 0 mm 6 m/s 756 mmHg 61%
13:00 +34°C° 0 mm 6 m/s 756 mmHg 57%
14:00 +33°C° 0 mm 5 m/s 756 mmHg 57%
15:00 +33°C° 0 mm 5 m/s 755 mmHg 57%
16:00 +32°C° 0 mm 5 m/s 755 mmHg 58%
17:00 +30°C° 0 mm 5 m/s 755 mmHg 65%
18:00 +28°C° 0 mm 4 m/s 756 mmHg 72%
19:00 +27°C° 0 mm 4 m/s 756 mmHg 80%
20:00 +27°C° 0.1 mm 4 m/s 756 mmHg 83%
21:00 +26°C° 0.1 mm 4 m/s 757 mmHg 86%
22:00 +26°C° 0.1 mm 4 m/s 757 mmHg 89%
23:00 +26°C° 0.1 mm 4 m/s 757 mmHg 90%

26 Outubro, Segunda-feira

Tempo Temperatura Precipitação Vento Pressão Humidade
00:00 +26°C° 0.1 mm 5 m/s 756 mmHg 91%
01:00 +25°C° 0.1 mm 5 m/s 756 mmHg 92%
02:00 +25°C° 0.1 mm 5 m/s 756 mmHg 92%
03:00 +25°C° 0.1 mm 5 m/s 756 mmHg 93%
04:00 +25°C° 0.1 mm 5 m/s 755 mmHg 93%
05:00 +26°C° 0.1 mm 5 m/s 756 mmHg 91%
06:00 +26°C° 0.1 mm 5 m/s 756 mmHg 90%
07:00 +26°C° 0.1 mm 5 m/s 756 mmHg 88%
08:00 +28°C° 0.1 mm 6 m/s 757 mmHg 80%
09:00 +29°C° 0.1 mm 6 m/s 757 mmHg 71%
10:00 +32°C° 0.1 mm 6 m/s 757 mmHg 62%
11:00 +32°C° 0 mm 6 m/s 756 mmHg 60%
12:00 +33°C° 0 mm 7 m/s 756 mmHg 58%
13:00 +33°C° 0 mm 7 m/s 755 mmHg 56%
14:00 +33°C° 0 mm 7 m/s 755 mmHg 58%
15:00 +32°C° 0 mm 7 m/s 754 mmHg 59%
16:00 +32°C° 0 mm 6 m/s 754 mmHg 61%
17:00 +29°C° 0 mm 6 m/s 754 mmHg 66%
18:00 +28°C° 0 mm 6 m/s 755 mmHg 72%
19:00 +27°C° 0 mm 5 m/s 755 mmHg 78%
20:00 +26°C° 0 mm 5 m/s 755 mmHg 81%
21:00 +26°C° 0 mm 6 m/s 756 mmHg 83%
22:00 +26°C° 0 mm 6 m/s 756 mmHg 86%
23:00 +25°C° 0 mm 5 m/s 756 mmHg 87%

27 Outubro, Terça-feira

Tempo Temperatura Precipitação Vento Pressão Humidade
00:00 +25°C° 0 mm 5 m/s 756 mmHg 89%
01:00 +25°C° 0 mm 4 m/s 755 mmHg 90%
02:00 +25°C° 0 mm 5 m/s 755 mmHg 91%
03:00 +25°C° 0 mm 5 m/s 755 mmHg 91%
04:00 +25°C° 0 mm 5 m/s 755 mmHg 91%
05:00 +25°C° 0 mm 5 m/s 755 mmHg 89%
06:00 +25°C° 0 mm 5 m/s 756 mmHg 87%
07:00 +26°C° 0 mm 5 m/s 756 mmHg 86%
08:00 +27°C° 0.1 mm 5 m/s 756 mmHg 80%
09:00 +28°C° 0.1 mm 6 m/s 756 mmHg 74%
10:00 +29°C° 0.1 mm 6 m/s 757 mmHg 68%
11:00 +32°C° 0 mm 6 m/s 756 mmHg 63%
12:00 +33°C° 0 mm 6 m/s 756 mmHg 57%
13:00 +34°C° 0 mm 7 m/s 755 mmHg 52%
14:00 +33°C° 0 mm 7 m/s 755 mmHg 55%
15:00 +33°C° 0 mm 7 m/s 754 mmHg 58%
16:00 +32°C° 0 mm 7 m/s 754 mmHg 61%
17:00 +30°C° 0 mm 7 m/s 754 mmHg 67%
18:00 +28°C° 0 mm 6 m/s 754 mmHg 73%
19:00 +27°C° 0 mm 6 m/s 755 mmHg 79%
20:00 +27°C° 0 mm 6 m/s 755 mmHg 80%
21:00 +27°C° 0 mm 6 m/s 756 mmHg 81%
22:00 +26°C° 0 mm 6 m/s 756 mmHg 82%
23:00 +26°C° 0 mm 6 m/s 756 mmHg 85%
Mostrar mais